Tracking 29892 objects as of 21-Nov-2024
HD Live streaming from Space Station
objects crossing your sky now

STARLINK-5155

Track STARLINK-5155 now!
10-day predictions
STARLINK-5155 is classified as:


NORAD ID: 54170
Int'l Code: 2022-141P
Perigee: 545.6 km
Apogee: 547.9 km
Inclination: 53.2 °
Period: 95.4 minutes
Semi major axis: 6917 km
RCS: Unknown
Launch date: October 28, 2022
Source: United States (US)
Launch site: AIR FORCE WESTERN TEST RANGE (AFWTR)
Your satellite tracking list
Your tracking list is empty




NASA's NSSDC Master Catalog

Two Line Element Set (TLE):
1 54170U 22141P   24324.46192368  .00001851  00000-0  13425-3 0  9994
2 54170  53.2183 337.5519 0001666  87.4784 272.6399 15.08867854114119
Source of the keplerian elements: AFSPC